Farmingdale, NY

4:09 PM EST on December 06, 2016 (GMT -0500)
Republic

Weather History for KFRG - July, 2013

Change the Weather History Date:

Sunday, July 21, 2013

  Actual Average Record
Temperature  
Mean Temperature 78 °F -  
Max Temperature 86 °F 80 °F 91 °F (2005)
Min Temperature 73 °F 65 °F 59 °F (2012)
Cooling Degree Days 14    
Growing Degree Days 28 (Base 50)    
Moisture  
Dew Point 66 °F    
Average Humidity 67    
Maximum Humidity 91    
Minimum Humidity 44    
Precipitation  
Precipitation 0.00 in - - ()
Sea Level Pressure  
Sea Level Pressure 29.91 in    
Wind  
Wind Speed 4 mph (East)    
Max Wind Speed 10 mph    
Max Gust Speed 20 mph    
Visibility 10 miles    
Events      
Averages and records for this station are not official NWS values.
T = Trace of Precipitation, MM = Missing Value Source: NWS Daily Summary

Daily Weather History Graph

Daily Weather History Graph

Search for Another Location

Airport or City:

Trip Planner

Search our weather history database for the weather conditions in past years. The results will help you decide how hot, cold, wet, or windy it might be!

Date:

Astronomy

Jul. 21, 2013 Rise Set
Actual Time 5:40 AM EDT 8:19 PM EDT
Civil Twilight 5:08 AM EDT 8:50 PM EDT
Nautical Twilight 4:28 AM EDT 9:30 PM EDT
Astronomical Twilight 3:43 AM EDT 10:15 PM EDT
Moon 7:14 PM EDT (7/21) 4:23 AM EDT (7/21)
Length of Visible Light 15h 42m
Length of Day
14h 38m
Waxing Gibbous, 98% of the Moon is Illuminated
Jul 21
Waxing Gibbous
Jul 22
Full
Jul 29
Last Quarter
Aug 6
New
Aug 14
First Quarter

Hourly Weather History & Observations

Time (EDT) Temp. Heat Index Dew Point Humidity Pressure Visibility Wind Dir Wind Speed Gust Speed Precip Events Conditions
12:53 AM 82.0 °F 84.5 °F 66.9 °F 60% 29.84 in 10.0 mi Calm Calm - N/A   Overcast
1:53 AM 78.1 °F - 69.1 °F 74% 29.86 in 10.0 mi WSW 3.5 mph - N/A   Partly Cloudy
2:53 AM 77.0 °F - 70.0 °F 79% 29.85 in 10.0 mi SSE 3.5 mph - N/A   Clear
3:53 AM 77.0 °F - 71.1 °F 82% 29.84 in 10.0 mi Calm Calm - N/A   Clear
4:53 AM 75.9 °F - 70.0 °F 82% 29.86 in 10.0 mi Calm Calm - N/A   Clear
5:53 AM 75.0 °F - 70.0 °F 84% 29.88 in 10.0 mi Calm Calm - N/A   Clear
6:53 AM 75.9 °F - 66.0 °F 71% 29.89 in 10.0 mi NE 5.8 mph - N/A   Mostly Cloudy
7:53 AM 78.1 °F - 63.0 °F 60% 29.90 in 10.0 mi NNE 10.4 mph - N/A   Scattered Clouds
8:53 AM 79.0 °F - 63.0 °F 58% 29.92 in 10.0 mi NE 6.9 mph - N/A   Scattered Clouds
9:53 AM 79.0 °F - 63.0 °F 58% 29.93 in 10.0 mi NNE 9.2 mph - N/A   Scattered Clouds
10:53 AM 80.1 °F 81.1 °F 61.0 °F 52% 29.94 in 10.0 mi ENE 9.2 mph - N/A   Clear
11:53 AM 84.9 °F 85.0 °F 61.0 °F 44% 29.93 in 10.0 mi ENE 8.1 mph - N/A   Clear
12:53 PM 84.0 °F 84.0 °F 60.1 °F 44% 29.94 in 10.0 mi NNE 6.9 mph - N/A   Mostly Cloudy
1:53 PM 84.0 °F 85.4 °F 64.0 °F 51% 29.94 in 10.0 mi East 6.9 mph 19.6 mph N/A   Scattered Clouds
2:53 PM 84.0 °F 85.4 °F 64.0 °F 51% 29.94 in 10.0 mi SSE 8.1 mph - N/A   Clear
3:53 PM 82.9 °F 84.0 °F 63.0 °F 51% 29.94 in 10.0 mi ESE 6.9 mph - N/A   Clear
4:53 PM 82.9 °F 84.6 °F 64.9 °F 54% 29.93 in 10.0 mi SE 9.2 mph - N/A   Clear
5:53 PM 82.0 °F 84.5 °F 66.9 °F 60% 29.92 in 10.0 mi ESE 9.2 mph - N/A   Clear
6:53 PM 79.0 °F - 68.0 °F 69% 29.93 in 10.0 mi ESE 6.9 mph - N/A   Clear
7:53 PM 77.0 °F - 69.1 °F 76% 29.93 in 10.0 mi ESE 5.8 mph - N/A   Clear
8:53 PM 75.9 °F - 70.0 °F 82% 29.95 in 10.0 mi SSE 6.9 mph - N/A   Clear
9:53 PM 73.9 °F - 70.0 °F 87% 29.97 in 10.0 mi ESE 3.5 mph - N/A   Clear
10:53 PM 73.9 °F - 70.0 °F 87% 29.96 in 10.0 mi ESE 3.5 mph - N/A   Clear
11:53 PM 73.9 °F - 71.1 °F 91% 29.96 in 10.0 mi Calm Calm - N/A   Clear